SCP
0 0 0 0 0 0 0 0 0 0 0 0 0 0 0 0 0 0 0 0 0 0 0 0 0 0 0 0 0 0 0 0 0 0 0 0 0 0
0 0 0 0 0 0 0 0 0 0 0 0 0 0 0 0 0 0 0 0 0 0 0 0 0 0 0 0 0 0 0 0 0 0 0 0 0 0
0 0 0 0 0 0 0 0 0 0 0 0 0 0 0 0 0 0 0 0 0 0 0 0 0 0 0 0 0 0 0 0 0 0 0 0 0 0
0 0 0 0 0 0 0 0 0 0 0 0 0 0 0 0 0 0 0 0 0 0 0 0 0 0 0 0 0 0 0 0 0 0 0 0 0 0
0 0 0 0 0 0 0 0 0 0 0 0 0 0 0 0 0 0 0 0 0 0 0 0 0 0 0 0 0 0 0 0 0 0 0 0 0 0
0 0 0 0 0 0 0 0 0 0 0 0 0 0 0 0 0 0 0 0 0 0 0 0 0 0 0 0 0 0 0 0 0 0 0 0 0 0
0 0 0 0 0 0 0 0 0 0 0 0 0 0 0 0 0 0 0 0 0 0 0 0 0 0 0 0 0 0 0 0 0 0 0 0 -0 0
0 0 0 0 0 0 0 0 0 0 0 0 0 0 0 0 0 0 0 0 0 0 0 0 0 0 0 0 0 0 0 0 0 0 0 0 0 0
0 0 0 0 0 0 0 0 0 0 0 0 0 0 0 0 0 0 0 0 0 0 0 0 0 0 0 0 0 0 0 0 0 0 0 0 0 0
0 0 0 0 0 0 0 0 0 0 0 0 0 0 0 0 0 0 0 0 0 0 0 0 0 0 0 0 0 0 0 0 0 0 0 0 0 0
0 0 0 0 0 0 0 0 0 0 0 0 0 0 0 0 0 0 0 0 0 0 0 0 0 0 0 0 0 0 0 0 0 0 0 0 0 0
0 0 0 0 0 0 0 0 0 0 0 0 0 0 0 0 0 0 0 0 0 0 0 0 0 0 0 0 0 0 0 0 -0 0 0 0 0 0
0 0 0 0 0 0 0 0 0 0 0 0 0 0 0 0 0 -0 -0 -0 -0 0 -0 -0 0 -0 0 0 0 0 0 0 0 0 0 0 0 0
0 0 0 0 0 0 0 0 0 0 0 0 0 0 0 0 -0 -0 -0 -0 -0 -0 -0 -0 -0 -0 -0 -0 0 0 0 0 0 0 0 0 0 0
0 0 0 0 0 0 0 0 0 0 0 0 0 0 0 0 -0 0 0 0 0 0 0 0 0 -0 -0 -0 -0 0 0 -0 -0 -0 0 0 0 0
0 0 0 0 0 0 0 0 0 0 0 0 0 0 0 0 0 0 0 0 0 0 0 -0 -0 -0 -0 0 0 0 0 0 0 0 0 0 0 0
0 0 0 0 0 0 0 0 0 0 0 0 0 0 0 0 0 0 0 0 0 0 0 0 0 0 0 -0 0 0 0 0 0 0 0 0 0 0
0 0 0 0 0 0 0 0 0 0 0 0 0 0 0 0 0 0 0 0 0 0 0 0 0 0 0 0 0 0 0 0 0 0 0 0 0 0
0 0 0 0 0 0 0 0 0 0 0 0 0 0 0 0 0 0 0 0 0 0 0 0 0 0 0 0 0 0 0 0 0 0 0 0 0 0
0 0 0 0 0 0 0 0 0 0 0 0 0 0 0 0 0 0 0 0 0 0 0 0 0 0 0 0 0 0 0 0 0 0 0 0 0 0
0 0 0 0 0 0 0 0 0 0 0 0 0 0 0 0 0 0 0 0 0 0 0 0 0 0 0 0 0 0 0 0 0 0 0 0 0 0
0 0 0 0 0 0 0 0 0 0 0 0 0 0 0 0 0 0 0 0 0 0 0 0 0 0 0 0 0 0 0 0 0 0 0 0 0 0
0 0 0 0 0 0 0 0 0 0 0 0 0 0 0 0 0 0 0 0 0 0 0 0 0 0 0 0 0 0 0 0 0 0 0 0 0 0
Wind_Speed_500mb
47 50 52 54 54 53 54 54 59 86 130 81 78 72 74 76 79 78 82 84 88 88 84 78 71 85 78 83 87 87 88 86 89 92 91 94 91 92
52 56 58 59 61 60 60 62 60 63 94 110 102 84 88 85 83 83 84 80 77 84 88 86 80 79 79 80 88 87 88 87 87 89 92 95 94 90
57 62 63 65 67 68 68 68 69 66 72 123 106 106 101 95 91 87 87 82 80 79 80 78 78 74 75 77 78 81 86 90 93 90 91 93 95 90
63 65 66 66 66 66 67 71 73 74 70 89 111 105 94 91 91 91 86 83 84 83 78 76 78 78 79 79 77 76 80 85 91 94 96 94 87 86
66 67 67 67 69 69 70 73 75 75 71 75 102 97 96 84 91 84 86 84 87 80 79 75 75 78 79 78 77 75 76 77 83 88 96 94 95 85
65 66 67 68 71 74 74 72 70 68 71 72 82 88 85 89 77 84 96 91 97 87 84 83 80 71 67 67 70 73 71 73 78 83 85 85 78 53
70 70 70 70 70 71 71 70 66 67 69 70 76 82 89 90 86 87 85 92 95 86 82 73 65 68 69 65 65 60 61 64 72 73 66 65 54 96
75 75 75 76 74 75 71 62 55 59 64 65 74 78 85 77 83 86 86 81 85 72 79 91 76 72 63 58 54 53 54 47 37 31 25 62 98 80
71 74 76 76 74 73 68 62 61 58 58 59 64 68 76 74 74 81 76 75 83 89 73 68 60 59 56 52 47 45 42 28 27 35 64 73 80 90
69 70 71 72 67 64 62 62 63 61 58 53 54 61 62 64 61 62 68 66 62 55 46 48 48 52 48 46 41 39 31 29 28 30 38 59 77 74
61 60 63 62 61 53 58 63 63 56 52 52 47 41 38 39 47 53 49 51 50 43 34 39 41 48 38 44 33 19 11 11 34 57 71 71 60 46
55 61 54 56 51 49 45 51 51 56 60 46 41 40 41 38 38 38 39 39 41 28 36 37 37 38 22 38 30 21 20 39 60 61 55 48 39 36
54 57 57 52 48 37 38 37 41 48 43 39 39 33 31 33 36 39 41 40 37 32 35 30 31 26 25 28 40 48 56 55 51 42 33 27 24 13
49 51 48 47 34 32 36 39 36 31 31 31 29 32 36 39 41 42 42 41 38 35 30 34 29 28 25 26 38 36 36 39 42 33 27 23 13 6
40 39 42 34 33 31 32 35 25 27 24 26 31 34 38 39 38 39 38 34 33 30 29 31 30 25 22 20 21 27 32 37 37 21 14 9 4 4
35 36 38 34 32 27 22 24 24 19 20 22 25 27 28 34 40 41 40 37 31 33 33 31 29 26 22 19 15 12 18 15 33 26 19 12 7 6
30 32 36 32 27 21 17 18 18 18 18 20 23 26 30 34 37 38 35 34 32 30 28 27 27 26 23 19 14 11 9 8 20 21 18 17 16 14
26 30 34 30 28 24 21 20 19 19 19 20 23 26 30 32 33 33 31 30 28 26 24 21 19 17 15 17 14 11 5 5 8 10 12 10 7 7
25 28 31 28 25 22 21 21 20 20 22 23 23 24 25 28 30 31 30 28 27 24 22 20 18 15 12 13 12 8 6 3 3 5 6 7 9 12
26 27 28 26 25 23 22 19 17 18 19 21 24 28 31 33 33 31 31 29 26 23 21 19 18 16 14 10 9 11 7 7 7 8 10 12 15 18
27 28 25 23 23 21 20 19 18 21 24 27 31 33 33 32 30 29 28 26 25 24 21 19 18 16 14 11 9 10 11 11 12 15 17 19 20 22
28 28 27 25 22 20 19 17 22 26 30 33 33 33 32 30 28 27 25 23 21 20 21 20 18 17 15 13 12 12 14 16 16 18 20 23 21 16
28 27 26 25 23 20 18 23 29 32 32 29 27 26 25 24 24 22 22 21 19 18 17 17 17 16 15 14 13 14 16 17 19 19 21 21 23 26
Wind_Direction_500mb
317 314 313 313 310 307 303 298 295 302 302 304 303 302 302 300 299 297 295 296 291 295 292 290 284 289 282 284 284 280 278 277 276 274 272 270 275 265
316 315 315 314 311 310 307 304 300 291 292 300 301 303 302 301 299 298 297 297 295 291 290 290 290 288 291 283 288 283 283 280 277 276 273 269 269 271
319 317 317 316 314 313 311 308 304 300 289 296 298 302 304 305 303 300 303 300 298 296 293 290 289 289 287 288 285 280 277 278 276 275 274 274 271 273
320 320 320 319 317 316 312 308 305 303 299 294 301 304 304 305 308 308 307 300 298 294 297 296 295 294 292 292 291 287 282 278 278 276 274 272 268 267
324 324 324 323 322 320 317 313 310 307 304 297 300 305 306 307 309 305 305 309 307 307 305 298 294 293 295 294 294 293 290 285 279 274 274 271 269 264
329 328 327 326 323 321 319 318 315 308 308 304 303 305 308 310 308 309 310 312 311 309 306 303 304 301 296 291 289 289 287 284 281 278 274 268 264 258
331 331 330 328 324 323 322 320 317 312 312 309 306 307 308 310 310 311 307 309 308 311 310 311 307 302 301 296 297 291 286 286 287 283 266 260 239 191
330 329 327 326 325 324 323 324 319 317 315 315 311 309 310 310 311 312 312 312 310 314 309 308 308 310 309 304 299 290 286 290 309 276 251 189 169 160
326 324 323 323 325 326 328 329 328 327 317 312 307 305 305 309 313 314 315 310 305 309 313 315 316 309 312 309 300 288 282 260 261 157 173 161 159 158
323 323 325 328 331 333 331 326 324 327 331 330 324 321 318 315 312 309 312 315 319 330 327 312 317 320 328 320 309 297 278 217 218 214 185 163 157 158
328 330 334 334 335 333 327 329 331 339 338 332 329 327 326 322 322 324 332 337 342 340 348 341 332 336 339 345 338 323 279 183 182 173 162 157 153 146
333 333 337 338 336 335 337 331 337 336 332 341 344 341 341 347 352 356 355 355 354 351 346 349 343 354 343 12 10 25 118 152 153 148 144 144 147 147
327 334 337 338 339 346 337 336 326 323 345 350 349 357 3 10 17 15 11 8 5 4 1 8 357 5 12 44 86 104 114 117 123 126 127 122 125 122
331 333 336 338 341 339 336 332 335 346 2 6 16 28 30 26 25 20 17 17 17 21 23 22 23 30 26 62 85 105 111 125 139 141 143 143 142 151
334 334 332 331 333 331 332 340 356 9 24 31 31 29 24 21 18 17 18 16 17 24 28 31 40 36 47 67 95 112 123 142 158 165 174 181 171 178
333 331 331 329 330 329 329 357 5 19 23 21 16 12 8 7 9 12 14 19 20 29 33 39 45 51 58 60 60 155 149 147 174 183 189 192 220 259
320 319 327 322 324 326 331 337 349 355 357 358 353 347 348 353 359 6 9 13 17 24 27 34 41 45 47 57 65 98 163 189 201 219 244 265 270 278
311 316 324 323 316 314 319 322 325 330 336 340 338 338 342 349 354 358 3 9 12 14 14 15 17 18 16 37 63 75 88 195 221 237 252 266 271 279
298 304 311 313 310 311 315 320 326 334 339 335 338 342 344 345 349 352 355 357 0 5 6 4 2 4 14 28 30 26 22 8 327 305 298 292 294 299
290 292 296 296 295 298 304 310 320 327 325 330 335 335 337 337 337 340 341 345 350 353 357 358 359 7 14 23 6 355 345 326 306 296 297 296 292 293
288 284 281 278 280 286 293 300 311 314 319 325 326 326 326 326 326 328 331 334 336 337 344 348 0 3 5 354 347 337 329 324 313 308 306 302 301 303
286 281 277 274 272 276 283 303 307 311 313 315 319 322 323 325 329 330 331 332 334 337 339 345 350 350 352 345 341 334 325 322 317 311 307 304 307 300
285 282 279 280 279 282 296 299 303 308 312 315 318 320 323 327 331 336 338 339 341 342 342 342 343 342 338 335 330 322 315 310 309 309 306 304 301 295
Wind_Speed_850mb
47 50 52 54 54 53 54 54 59 86 130 81 78 72 74 76 79 78 82 84 88 88 84 78 71 85 78 83 87 87 88 86 89 92 91 94 91 92
52 56 58 59 61 60 60 62 60 63 94 110 102 84 88 85 83 83 84 80 77 84 88 86 80 79 79 80 88 87 88 87 87 89 92 95 94 90
57 62 63 65 67 68 68 68 69 66 72 123 106 106 101 95 91 87 87 82 80 79 80 78 78 74 75 77 78 81 86 90 93 90 91 93 95 90
63 65 66 66 66 66 67 71 73 74 70 89 111 105 94 91 91 91 86 83 84 83 78 76 78 78 79 79 77 76 80 85 91 94 96 94 87 86
66 67 67 67 69 69 70 73 75 75 71 75 102 97 96 84 91 84 86 84 87 80 79 75 75 78 79 78 77 75 76 77 83 88 96 94 95 85
65 66 67 68 71 74 74 72 70 68 71 72 82 88 85 89 77 84 96 91 97 87 84 83 80 71 67 67 70 73 71 73 78 83 85 85 78 53
70 70 70 70 70 71 71 70 66 67 69 70 76 82 89 90 86 87 85 92 95 86 82 73 65 68 69 65 65 60 61 64 72 73 66 65 54 96
75 75 75 76 74 75 71 62 55 59 64 65 74 78 85 77 83 86 86 81 85 72 79 91 76 72 63 58 54 53 54 47 37 31 25 62 98 80
71 74 76 76 74 73 68 62 61 58 58 59 64 68 76 74 74 81 76 75 83 89 73 68 60 59 56 52 47 45 42 28 27 35 64 73 80 90
69 70 71 72 67 64 62 62 63 61 58 53 54 61 62 64 61 62 68 66 62 55 46 48 48 52 48 46 41 39 31 29 28 30 38 59 77 74
61 60 63 62 61 53 58 63 63 56 52 52 47 41 38 39 47 53 49 51 50 43 34 39 41 48 38 44 33 19 11 11 34 57 71 71 60 46
55 61 54 56 51 49 45 51 51 56 60 46 41 40 41 38 38 38 39 39 41 28 36 37 37 38 22 38 30 21 20 39 60 61 55 48 39 36
54 57 57 52 48 37 38 37 41 48 43 39 39 33 31 33 36 39 41 40 37 32 35 30 31 26 25 28 40 48 56 55 51 42 33 27 24 13
49 51 48 47 34 32 36 39 36 31 31 31 29 32 36 39 41 42 42 41 38 35 30 34 29 28 25 26 38 36 36 39 42 33 27 23 13 6
40 39 42 34 33 31 32 35 25 27 24 26 31 34 38 39 38 39 38 34 33 30 29 31 30 25 22 20 21 27 32 37 37 21 14 9 4 4
35 36 38 34 32 27 22 24 24 19 20 22 25 27 28 34 40 41 40 37 31 33 33 31 29 26 22 19 15 12 18 15 33 26 19 12 7 6
30 32 36 32 27 21 17 18 18 18 18 20 23 26 30 34 37 38 35 34 32 30 28 27 27 26 23 19 14 11 9 8 20 21 18 17 16 14
26 30 34 30 28 24 21 20 19 19 19 20 23 26 30 32 33 33 31 30 28 26 24 21 19 17 15 17 14 11 5 5 8 10 12 10 7 7
25 28 31 28 25 22 21 21 20 20 22 23 23 24 25 28 30 31 30 28 27 24 22 20 18 15 12 13 12 8 6 3 3 5 6 7 9 12
26 27 28 26 25 23 22 19 17 18 19 21 24 28 31 33 33 31 31 29 26 23 21 19 18 16 14 10 9 11 7 7 7 8 10 12 15 18
27 28 25 23 23 21 20 19 18 21 24 27 31 33 33 32 30 29 28 26 25 24 21 19 18 16 14 11 9 10 11 11 12 15 17 19 20 22
28 28 27 25 22 20 19 17 22 26 30 33 33 33 32 30 28 27 25 23 21 20 21 20 18 17 15 13 12 12 14 16 16 18 20 23 21 16
28 27 26 25 23 20 18 23 29 32 32 29 27 26 25 24 24 22 22 21 19 18 17 17 17 16 15 14 13 14 16 17 19 19 21 21 23 26
Wind_Direction_850mb
317 314 313 313 310 307 303 298 295 302 302 304 303 302 302 300 299 297 295 296 291 295 292 290 284 289 282 284 284 280 278 277 276 274 272 270 275 265
316 315 315 314 311 310 307 304 300 291 292 300 301 303 302 301 299 298 297 297 295 291 290 290 290 288 291 283 288 283 283 280 277 276 273 269 269 271
319 317 317 316 314 313 311 308 304 300 289 296 298 302 304 305 303 300 303 300 298 296 293 290 289 289 287 288 285 280 277 278 276 275 274 274 271 273
320 320 320 319 317 316 312 308 305 303 299 294 301 304 304 305 308 308 307 300 298 294 297 296 295 294 292 292 291 287 282 278 278 276 274 272 268 267
324 324 324 323 322 320 317 313 310 307 304 297 300 305 306 307 309 305 305 309 307 307 305 298 294 293 295 294 294 293 290 285 279 274 274 271 269 264
329 328 327 326 323 321 319 318 315 308 308 304 303 305 308 310 308 309 310 312 311 309 306 303 304 301 296 291 289 289 287 284 281 278 274 268 264 258
331 331 330 328 324 323 322 320 317 312 312 309 306 307 308 310 310 311 307 309 308 311 310 311 307 302 301 296 297 291 286 286 287 283 266 260 239 191
330 329 327 326 325 324 323 324 319 317 315 315 311 309 310 310 311 312 312 312 310 314 309 308 308 310 309 304 299 290 286 290 309 276 251 189 169 160
326 324 323 323 325 326 328 329 328 327 317 312 307 305 305 309 313 314 315 310 305 309 313 315 316 309 312 309 300 288 282 260 261 157 173 161 159 158
323 323 325 328 331 333 331 326 324 327 331 330 324 321 318 315 312 309 312 315 319 330 327 312 317 320 328 320 309 297 278 217 218 214 185 163 157 158
328 330 334 334 335 333 327 329 331 339 338 332 329 327 326 322 322 324 332 337 342 340 348 341 332 336 339 345 338 323 279 183 182 173 162 157 153 146
333 333 337 338 336 335 337 331 337 336 332 341 344 341 341 347 352 356 355 355 354 351 346 349 343 354 343 12 10 25 118 152 153 148 144 144 147 147
327 334 337 338 339 346 337 336 326 323 345 350 349 357 3 10 17 15 11 8 5 4 1 8 357 5 12 44 86 104 114 117 123 126 127 122 125 122
331 333 336 338 341 339 336 332 335 346 2 6 16 28 30 26 25 20 17 17 17 21 23 22 23 30 26 62 85 105 111 125 139 141 143 143 142 151
334 334 332 331 333 331 332 340 356 9 24 31 31 29 24 21 18 17 18 16 17 24 28 31 40 36 47 67 95 112 123 142 158 165 174 181 171 178
333 331 331 329 330 329 329 357 5 19 23 21 16 12 8 7 9 12 14 19 20 29 33 39 45 51 58 60 60 155 149 147 174 183 189 192 220 259
320 319 327 322 324 326 331 337 349 355 357 358 353 347 348 353 359 6 9 13 17 24 27 34 41 45 47 57 65 98 163 189 201 219 244 265 270 278
311 316 324 323 316 314 319 322 325 330 336 340 338 338 342 349 354 358 3 9 12 14 14 15 17 18 16 37 63 75 88 195 221 237 252 266 271 279
298 304 311 313 310 311 315 320 326 334 339 335 338 342 344 345 349 352 355 357 0 5 6 4 2 4 14 28 30 26 22 8 327 305 298 292 294 299
290 292 296 296 295 298 304 310 320 327 325 330 335 335 337 337 337 340 341 345 350 353 357 358 359 7 14 23 6 355 345 326 306 296 297 296 292 293
288 284 281 278 280 286 293 300 311 314 319 325 326 326 326 326 326 328 331 334 336 337 344 348 0 3 5 354 347 337 329 324 313 308 306 302 301 303
286 281 277 274 272 276 283 303 307 311 313 315 319 322 323 325 329 330 331 332 334 337 339 345 350 350 352 345 341 334 325 322 317 311 307 304 307 300
285 282 279 280 279 282 296 299 303 308 312 315 318 320 323 327 331 336 338 339 341 342 342 342 343 342 338 335 330 322 315 310 309 309 306 304 301 295